[[{"header":{"parameterUnit":"m.s-1","parameterCategory":1,"la1":30.2991,"la2":30.254,"lo1":-89.0895,"lo2":-89.0444,"dy":0.0017,"dx":0.0017,"nx":28,"ny":28,"refTime":"2024-03-31T21:00:00:Z","depth":0,"parameterNumber":2,"parameterNumberName":"U-component_of_WINDS"},"data":[0,0,0,0,0,0,0,0,0,0,0,0,0,0,0,0,0,0,0,0,0,0,0,0,0,0,0,0,0,0,0,0,0,0,0,0,0,0,0,0,0,0,0,0,0,0,0,0,0,0,0,0,0,0,0,0,0,0,-1.304,-1.304,0,-1.3084,-1.3084,-1.3085,-1.3018,-1.3016,-1.3013,-1.3011,-1.3057,-1.306,-1.3063,0,0,0,0,0,0,0,0,0,0,0,0,0,-1.2897,-1.29,-1.304,-1.304,-1.3041,-1.3084,-1.3084,-1.3085,-1.3018,-1.3015,-1.3013,-1.301,-1.3056,-1.306,-1.3064,0,0,0,0,0,0,0,0,0,0,0,0,0,-1.2952,-1.2901,-1.304,-1.3013,-1.3011,-1.3083,-1.3084,-1.3085,-1.3019,-1.3015,-1.3012,-1.3009,-1.3054,-1.3059,-1.3064,-1.3165,0,0,-1.308,-1.3082,0,0,0,0,0,0,0,0,-1.2949,-1.2957,-1.3016,-1.3015,-1.3013,-1.3042,-1.305,-1.3112,-1.302,-1.3016,-1.3011,-1.3007,-1.3055,-1.3059,-1.3075,-1.3168,-1.317,-1.308,-1.3083,-1.3086,-1.3087,0,0,0,0,0,0,0,-1.2945,-1.2955,-1.3057,-1.3017,-1.3015,-1.2998,-1.3002,-1.3062,-1.3054,-1.3016,-1.3011,-1.3017,-1.3053,-1.3071,-1.3076,-1.317,-1.308,-1.3085,-1.3088,-1.309,-1.3343,-1.3347,0,0,0,0,0,0,-1.2945,-1.2952,-1.3056,-1.3058,-1.2971,-1.3003,-1.3008,-1.3036,-1.3053,-1.3053,-1.302,-1.3014,-1.3064,-1.307,-1.3077,-1.3193,-1.3085,-1.309,-1.3093,-1.334,-1.3344,-1.3348,0,0,0,0,0,0,-1.2942,-1.2954,-1.3054,-1.3004,-1.3015,-1.301,-1.3042,-1.3039,-1.3056,-1.3057,-1.3055,-1.304,-1.3061,-1.307,-1.3143,-1.3194,-1.3093,-1.3097,-1.3335,-1.3341,-1.3346,-1.3429,0,0,0,0,0,0,-1.2938,-1.2954,-1.2993,-1.3005,-1.3018,-1.312,-1.3045,-1.3042,-1.3065,-1.3057,-1.3074,-1.3074,-1.3059,-1.3136,-1.3148,-1.3199,-1.3101,-1.3331,-1.3338,-1.3344,-1.3422,-1.3437,-1.345,0,0,0,0,0,-1.2933,-1.3016,-1.2995,-1.3008,-1.3067,-1.3123,-1.313,-1.3111,-1.307,-1.3108,-1.3108,-1.3073,-1.3187,-1.3144,-1.3157,-1.3211,-1.3327,-1.3336,-1.3344,-1.3415,-1.3434,-1.3449,0,0,0,0,0,0,-1.301,-1.3017,-1.2994,-1.3083,-1.3103,-1.3111,-1.3159,-1.3132,-1.3164,-1.3155,-1.3131,-1.3135,-1.3212,-1.3219,-1.3171,-1.3308,-1.325,-1.3262,-1.33,-1.3317,-1.3331,-1.3327,-1.3105,0,0,0,0,0,-1.3038,-1.3083,-1.3086,-1.3164,-1.3175,-1.3166,-1.3189,-1.3173,-1.3192,-1.32,-1.3205,-1.3226,-1.3265,-1.3292,-1.3329,-1.3423,-1.3424,-1.3466,-1.348,-1.3492,-1.3501,-1.3547,-1.3565,-1.3375,-1.3375,-1.3375,0,0,-1.3095,-1.3104,-1.3134,-1.318,-1.3193,-1.3238,-1.3173,-1.3226,-1.3259,-1.3208,-1.3276,-1.3281,-1.3301,-1.3384,-1.3421,-1.3392,-1.3554,-1.3502,-1.3511,-1.3514,-1.3557,-1.3575,-1.3591,-1.3381,-1.338,-1.3379,0,0,-1.3221,-1.3234,-1.3298,-1.3312,-1.3332,-1.3325,-1.3341,-1.3353,-1.3354,-1.3421,-1.3383,-1.3423,-1.3493,-1.3508,-1.3525,-1.3654,-1.3623,-1.3667,-1.3739,-1.3785,-1.3799,-1.3812,-1.3855,-1.3871,-1.3677,-1.3677,-1.3677,0,-1.3289,-1.3357,-1.3335,-1.3389,-1.3409,-1.3364,-1.3428,-1.3443,-1.3475,-1.3489,-1.3457,-1.3541,-1.3552,-1.3636,-1.3667,-1.3684,-1.3699,-1.3664,-1.3799,-1.3812,-1.3824,-1.3864,-1.3881,-1.3682,-1.3682,-1.3681,-1.3681,0,-1.3438,-1.3485,-1.3535,-1.3564,-1.359,-1.365,-1.3635,-1.3664,-1.3645,-1.3641,-1.3709,-1.3721,-1.3757,-1.3777,-1.376,-1.3857,-1.3838,-1.3803,-1.3744,-1.3847,-1.3884,-1.39,-1.3689,-1.3688,-1.3686,-1.3685,0,0,-1.3614,-1.3629,-1.3647,-1.3658,-1.3677,-1.3712,-1.3769,-1.3803,-1.3827,-1.385,-1.3895,-1.3954,-1.3921,-1.394,-1.3924,-1.3964,-1.4061,-1.3924,-1.3924,-1.3946,-1.4165,-1.4189,-1.4208,-1.4041,-1.4044,-1.4047,-1.4162,0,-1.3737,-1.3833,-1.3813,-1.3907,-1.3948,-1.3905,-1.3954,-1.3969,-1.3967,-1.4001,-1.3999,-1.4039,-1.3994,-1.4005,-1.4043,-1.4041,-1.4104,-1.4033,-1.408,-1.4082,-1.4073,-1.4228,-1.4254,-1.4362,-1.4177,-1.418,-1.4181,0,-1.3894,-1.392,-1.4017,-1.4025,-1.4041,-1.4085,-1.4113,-1.4148,-1.4164,-1.4159,-1.4179,-1.4155,-1.4209,-1.4151,-1.4224,-1.4176,-1.4194,-1.4196,-1.42,-1.4201,-1.4136,-1.423,-1.4397,-1.4412,-1.4205,-1.4203,-1.4201,0,-1.4008,-1.4069,-1.4133,-1.4144,-1.4156,-1.4187,-1.4194,-1.4206,-1.4227,-1.4253,-1.4265,-1.4298,-1.4315,-1.4339,-1.4323,-1.4284,-1.4398,-1.4339,-1.4393,-1.4393,-1.4417,-1.4415,-1.4586,-1.4434,-1.4434,-1.4434,-1.4433,0,-1.4146,-1.4206,-1.4184,-1.4223,-1.4288,-1.4265,-1.433,-1.4332,-1.4343,-1.4381,-1.4347,-1.4384,-1.4362,-1.4396,-1.4385,-1.4444,-1.4453,-1.4449,-1.4445,-1.4451,-1.4451,-1.446,-1.4451,-1.4438,-1.4437,-1.4436,-1.4436,0,-1.4284,-1.4272,-1.4339,-1.4343,-1.4346,-1.4393,-1.4397,-1.4433,-1.4427,-1.4476,-1.4486,-1.4477,-1.4515,-1.4502,-1.4545,-1.4536,-1.4611,-1.4599,-1.4605,-1.4601,-1.4653,-1.4647,-1.4834,-1.4855,-1.4693,-1.4695,-1.4696,0,-1.4371,-1.4415,-1.4424,-1.4446,-1.4455,-1.4492,-1.4512,-1.4491,-1.4514,-1.4534,-1.4567,-1.4602,-1.4629,-1.4692,-1.4689,-1.472,-1.4706,-1.4769,-1.471,-1.4713,-1.4703,-1.4699,-1.4701,-1.478,-1.4782,-1.4784,-1.4785,0,-1.4526,-1.4517,-1.4547,-1.4575,-1.46,-1.4621,-1.464,-1.466,-1.464,-1.4667,-1.4705,-1.4725,-1.4767,-1.4801,-1.4828,-1.4834,-1.4805,-1.4804,-1.4817,-1.4822,-1.4822,-1.4819,-1.4633,-1.4799,-1.4797,-1.4796,-1.4796,-1.4795,-1.4638,-1.4674,-1.4685,-1.4719,-1.473,-1.4747,-1.478,-1.4777,-1.4809,-1.4839,-1.4825,-1.4868,-1.4881,-1.4914,-1.4924,-1.4957,-1.4932,-1.4953,-1.4957,-1.4962,-1.4966,-1.4819,-1.4962,-1.4962,-1.4961,-1.4961,-1.4961,0,-1.4788,-1.4792,-1.4824,-1.4849,-1.4875,-1.4846,-1.4864,-1.4887,-1.4925,-1.4939,-1.4965,-1.5007,-1.504,-1.5039,-1.5069,-1.5095,-1.5082,-1.5103,-1.5099,-1.51,-1.4989,-1.4972,-1.5112,-1.5112,-1.5112,-1.5112,-1.5112,-1.5112,-1.4869,-1.4927,-1.4919,-1.4981,-1.4985,-1.5026,-1.5038,-1.5053,-1.5063,-1.5111,-1.5137,-1.5136,-1.5143,-1.5172,-1.52,-1.5199,-1.521,-1.5235,-1.5229,-1.5124,-1.5109,-1.5094,-1.5079,-1.5239,-1.5239,-1.5337,-1.5338,-1.5339]},{"header":{"parameterUnit":"m.s-1","parameterCategory":1,"la1":30.2991,"la2":30.254,"lo1":-89.0895,"lo2":-89.0444,"dy":0.0017,"dx":0.0017,"nx":28,"ny":28,"refTime":"2024-03-31T21:00:00:Z","depth":0,"parameterNumber":3,"parameterNumberName":"V-component_of_WINDS"},"data":[0,0,0,0,0,0,0,0,0,0,0,0,0,0,0,0,0,0,0,0,0,0,0,0,0,0,0,0,0,0,0,0,0,0,0,0,0,0,0,0,0,0,0,0,0,0,0,0,0,0,0,0,0,0,0,0,0,0,3.5079,3.5079,0,3.509,3.509,3.509,3.5145,3.5146,3.5147,3.5149,3.5156,3.5155,3.5154,0,0,0,0,0,0,0,0,0,0,0,0,0,3.5105,3.5104,3.5079,3.5079,3.5079,3.509,3.509,3.509,3.5145,3.5146,3.5148,3.5149,3.5156,3.5155,3.5154,0,0,0,0,0,0,0,0,0,0,0,0,0,3.5102,3.5104,3.5079,3.5108,3.511,3.509,3.509,3.509,3.5144,3.5146,3.5148,3.515,3.5156,3.5155,3.5153,3.5104,0,0,3.5149,3.5148,0,0,0,0,0,0,0,0,3.5102,3.5101,3.5103,3.5106,3.5109,3.5118,3.5101,3.5094,3.5144,3.5131,3.5149,3.5151,3.5141,3.5141,3.5139,3.5104,3.5105,3.5148,3.5147,3.5147,3.5146,0,0,0,0,0,0,0,3.5102,3.5101,3.5083,3.5103,3.5107,3.512,3.5122,3.51,3.5125,3.5132,3.5136,3.5137,3.5143,3.514,3.5139,3.5105,3.5148,3.5147,3.5146,3.5146,3.5036,3.5034,0,0,0,0,0,0,3.5099,3.5101,3.5083,3.5083,3.511,3.5118,3.512,3.5113,3.5125,3.5129,3.5136,3.514,3.5142,3.5141,3.514,3.5086,3.5147,3.5145,3.5144,3.5038,3.5035,3.5033,0,0,0,0,0,0,3.5099,3.5096,3.5082,3.5093,3.5092,3.5115,3.5107,3.5112,3.5109,3.5128,3.5132,3.5128,3.5143,3.5142,3.5114,3.5087,3.5145,3.5143,3.504,3.5037,3.5034,3.4976,0,0,0,0,0,0,3.5099,3.5096,3.5078,3.5092,3.5092,3.5056,3.5105,3.5111,3.5107,3.5112,3.5122,3.5125,3.5145,3.5116,3.5112,3.5086,3.5142,3.5043,3.5039,3.5035,3.4981,3.4972,3.4964,0,0,0,0,0,3.51,3.5059,3.5076,3.5074,3.5069,3.5054,3.5054,3.5078,3.5104,3.5086,3.5099,3.5125,3.509,3.5113,3.5109,3.5082,3.5044,3.504,3.5035,3.4984,3.4973,3.4964,0,0,0,0,0,0,3.5038,3.5061,3.5081,3.5043,3.5047,3.5064,3.5041,3.5065,3.506,3.5065,3.5095,3.5097,3.5065,3.507,3.5095,3.5037,3.5072,3.5067,3.5035,3.5024,3.5016,3.5016,3.5141,0,0,0,0,0,3.502,3.5007,3.5028,3.4993,3.4994,3.5017,3.5012,3.5031,3.5035,3.5036,3.5047,3.5049,3.504,3.5032,3.5024,3.4982,3.4986,3.4962,3.4953,3.4946,3.4941,3.4924,3.4914,3.5018,3.5019,3.5019,0,0,3.4983,3.4994,3.4983,3.4981,3.4986,3.4972,3.5018,3.5,3.4991,3.5033,3.5009,3.5017,3.5021,3.4988,3.4973,3.4991,3.4914,3.4941,3.4935,3.4934,3.4918,3.4908,3.4899,3.5015,3.5016,3.5016,0,0,3.4908,3.4914,3.4888,3.4893,3.4901,3.4918,3.4911,3.4926,3.4933,3.491,3.4943,3.4931,3.4913,3.4916,3.4915,3.4847,3.4872,3.4843,3.4799,3.4781,3.4773,3.4766,3.4744,3.4736,3.4838,3.4838,3.4838,0,3.486,3.4841,3.487,3.4853,3.4852,3.4892,3.4866,3.4869,3.4873,3.4872,3.4892,3.4873,3.4879,3.4848,3.4832,3.4829,3.4824,3.4842,3.4772,3.4765,3.4759,3.4739,3.473,3.4834,3.4835,3.4835,3.4835,0,3.4784,3.477,3.4748,3.4754,3.4751,3.4728,3.4755,3.4747,3.4768,3.4782,3.476,3.4769,3.4765,3.4759,3.4776,3.4731,3.4743,3.4767,3.4803,3.4745,3.4727,3.4719,3.483,3.4831,3.4832,3.4833,0,0,3.4667,3.4694,3.4685,3.469,3.4704,3.4694,3.4675,3.4674,3.4668,3.467,3.4656,3.4642,3.4666,3.4665,3.4684,3.4668,3.4618,3.4696,3.4696,3.4683,3.4572,3.4555,3.4545,3.4634,3.4633,3.4632,3.4572,0,3.4598,3.4568,3.4596,3.456,3.455,3.4591,3.4574,3.4581,3.4595,3.4588,3.4603,3.4594,3.4625,3.4626,3.4612,3.4627,3.4596,3.4631,3.4622,3.4621,3.4621,3.4535,3.4515,3.4459,3.4565,3.4564,3.4563,0,3.4512,3.4515,3.4479,3.45,3.4496,3.4481,3.4484,3.4477,3.4486,3.4498,3.4499,3.4524,3.4508,3.4543,3.4522,3.4546,3.4544,3.4551,3.4549,3.455,3.4589,3.4535,3.4441,3.4433,3.4551,3.4552,3.4553,0,3.4435,3.4428,3.4407,3.441,3.4432,3.4422,3.443,3.4442,3.4441,3.4443,3.4443,3.4442,3.4442,3.4442,3.4466,3.4489,3.4443,3.448,3.4453,3.4453,3.4442,3.4442,3.4348,3.4438,3.4438,3.4438,3.4438,0,3.4355,3.4332,3.4374,3.436,3.4337,3.437,3.4345,3.4358,3.4369,3.436,3.4394,3.4384,3.4417,3.4411,3.443,3.4412,3.4411,3.442,3.4426,3.4418,3.4417,3.4418,3.4423,3.4436,3.4436,3.4437,3.4437,0,3.4264,3.4291,3.4271,3.4295,3.4301,3.4283,3.4304,3.4293,3.4311,3.4299,3.4298,3.4325,3.4321,3.4346,3.4345,3.4358,3.4331,3.4342,3.4328,3.4332,3.4305,3.4308,3.4209,3.4199,3.4293,3.4293,3.4292,0,3.4212,3.4196,3.422,3.4218,3.4226,3.422,3.4221,3.4253,3.4251,3.4264,3.4252,3.4251,3.4252,3.4243,3.4263,3.4263,3.4276,3.4241,3.4276,3.427,3.4278,3.428,3.4279,3.4234,3.4233,3.4232,3.4231,0,3.4118,3.4133,3.4133,3.4138,3.4138,3.4143,3.415,3.4146,3.4181,3.4178,3.4175,3.4176,3.4178,3.4177,3.4182,3.4191,3.4217,3.422,3.4215,3.4207,3.4201,3.4207,3.431,3.4222,3.4223,3.4224,3.4224,3.4225,3.4047,3.4036,3.4053,3.4052,3.4062,3.4069,3.4062,3.408,3.4079,3.4084,3.4103,3.4097,3.4111,3.4121,3.4128,3.4125,3.4141,3.4132,3.413,3.4128,3.4125,3.4201,3.4125,3.4126,3.4126,3.4126,3.4126,0,3.3957,3.3971,3.397,3.3981,3.3981,3.4008,3.4018,3.4016,3.4012,3.4023,3.4025,3.4023,3.4024,3.4045,3.4048,3.4042,3.4054,3.4042,3.4043,3.4045,3.4108,3.4114,3.4032,3.4032,3.4032,3.4032,3.4032,3.4032,3.391,3.3895,3.3912,3.3903,3.3917,3.3913,3.3918,3.3925,3.3935,3.3932,3.3934,3.3948,3.3964,3.397,3.3972,3.3978,3.3979,3.3963,3.3973,3.4031,3.404,3.4049,3.4055,3.3962,3.3962,3.3911,3.3911,3.391]}]]